Location: Cuiry
(49.3858°N, 3.7708°E)
Time: 20:12:35
(UTC+00:00)

Cosmos 332 Rocket - Pass Details

Date: 12 January 2026
Orbit: 672 x 693 km, 74.0° (Epoch: 16 February)

Event Time Altitude Azimuth Distance (km) Brightness Sun altitude
Rises 17:15:27 0° 341° (NNW) 3,038 7.1 -10.3°
Reaches altitude 10° 17:17:56 10° 350° (N) 2,122 6.2 -10.7°
Maximum altitude 17:22:20 36° 57° (ENE) 1,080 4.3 -11.4°
Drops below altitude 10° 17:26:43 10° 124° (SE) 2,120 6.0 -12.1°
Sets 17:29:11 0° 133° (SE) 3,035 6.8 -12.4°
